Miscellaneous Local Product
Issued by NWS North Platte, NE

Home | Current Version | Previous Version | Graphics & Text | Print | Product List | Glossary On
Versions: 1 2 3 4 5 6 7 8 9 10 11 12 13 14 15 16 17 18 19 20 21 22 23 24 25 26 27 28 29 30 31 32 33 34 35 36 37 38 39 40 41 42 43 44 45 46 47 48 49 50
145
AXUS43 KLBF 131610
MISLBF


WESTERN AND NORTH CENTRAL NEBRASKA HOURLY WEATHER ROUNDUP
NATIONAL WEATHER SERVICE NORTH PLATTE NE
1000 AM CST SAT FEB 13 2016

NOTE: "FAIR" INDICATES FEW OR NO CLOUDS BELOW 12,000 FEET WITH NO
SIGNIFICANT WEATHER AND/OR OBSTRUCTIONS TO VISIBILITY.

NOTE: STATIONS NOT REPORTING VARIABLES SUCH AS SKY/WEATHER OR
PRESSURE ARE PROVIDED BY THE NEBRASKA DEPARTMENT OF
ROADS...RAWS...AND APRS NETWORKS...AND ARE NOT UNDER
NATIONAL WEATHER SERVICE QUALITY CONTROL.

...OBSERVATIONS IN AND NEAR THE EASTERN PANHANDLE OF NEBRASKA...

CITY           SKY/WX    TMP DP  RH WIND       PRES   REMARKS
PINE RIDGE     CLOUDY    35  30  82 S14       30.02F WCI  26
CHADRON        CLOUDY    38  31  76 S12       30.01F WCI  30
ALLIANCE       CLOUDY    31  30  96 S16       30.04F WCI  20
SIDNEY         CLOUDY    30  29  96 S15       30.08F FOG     WCI  19
CRESCENT LAKE    N/A     29  29 100 S14         N/A  WCI  18
$$

...OBSERVATIONS IN NORTH CENTRAL NEBRASKA...

CITY           SKY/WX    TMP DP  RH WIND       PRES   REMARKS
VALENTINE      CLOUDY    23  20  88 S20       30.18F WCI   8
THEDFORD       CLOUDY    24  23  96 S12G20    30.20F FOG     WCI  13
AINSWORTH      CLOUDY    21  15  76 S21       30.22F WCI   6
O`NEILL        CLOUDY    16  10  76 SE18G25   30.35F WCI   0
ORD            CLOUDY    17   7  64 S13       30.35F WCI   4
BROKEN BOW     CLOUDY    18  14  84 S20       30.29F WCI   2
VALENTINE NWR    N/A     22  20  93 S14G21      N/A  WCI   9
BUTTE            N/A     15  11  82 SE17G24     N/A  WCI  -1
HALSEY           N/A     20  17  88 S13G20      N/A  WCI   7
CHAMBERS         N/A     16   8  68 S7          N/A  WCI   6
EWING            N/A     14   9  81 SE9         N/A  WCI   2
$$

...OBSERVATIONS IN SOUTHWEST NEBRASKA AND FAR NORTHEAST COLORADO...

CITY           SKY/WX    TMP DP  RH WIND       PRES   REMARKS
WRAY           CLOUDY    29  29 100 S14       30.16F WCI  18
HOLYOKE        CLOUDY    32  30  93 S16       30.15F FOG     WCI  21
IMPERIAL       CLOUDY    25  24  96 S18       30.19F WCI  11
OGALLALA       CLOUDY    28  26  93 S15       30.17F FOG     WCI  17
NORTH PLATTE   CLOUDY    23  20  88 S18G29    30.24F WCI   9
MCCOOK         CLOUDY    21  17  84 SE18      30.29F WCI   6
LEXINGTON      CLOUDY    22  17  80 S18       30.32F WCI   7
STAPLETON        N/A     20  19  94 CALM        N/A
$$

...OBSERVATIONS IN CENTRAL LINCOLN COUNTY AREA...

CITY           SKY/WX    TMP DP  RH WIND       PRES   REMARKS
N.P. AIRPORT   CLOUDY    23  20  88 S18G29    30.24F WCI   9
N.P. DOWNTOWN    N/A     22  20  91 S9G18       N/A  WCI  12
N.P. SOUTHEAST   N/A     22  20  91 S10G17      N/A  WCI  11
N.P. HILLCREST   N/A     22  21  95 S12         N/A  WCI  11
$$

...SOME OBSERVATIONS FROM AROUND THE REGION...

CITY           SKY/WX    TMP DP  RH WIND       PRES   REMARKS
DENVER         CLOUDY    32  27  81 CALM      30.06F HAZE
LARAMIE        CLOUDY    46  13  26 SW20      30.10R
CHEYENNE       CLOUDY    52  18  26 SW10      30.06S
SCOTTSBLUFF    CLOUDY    33  30  88 SE9       30.04F WCI  25
RAPID CITY     CLOUDY    33  30  88 S13       29.96F WCI  24
BISMARCK       CLOUDY    11  -1  58 SE21      30.22F WCI  -8
PIERRE         CLOUDY    17  12  80 SE22G28   30.20F WCI   0
WINNER         FAIR      23  12  62 S26G35    30.21F WCI   6
SIOUX FALLS    CLOUDY     3  -5  69 SE15      30.49F WCI -16
OMAHA          CLOUDY    12   3  67 SE9       30.58F WCI   0
GRAND ISLAND   CLOUDY    16   9  74 SE17      30.42F WCI   0
KANSAS CITY    CLOUDY    17   3  54 SE8       30.57F WCI   7
WICHITA        CLOUDY    28   7  41 SE13      30.47S WCI  17
OKLAHOMA CITY  MOSUNNY   37  21  52 E12       30.42S WCI  29
LIBERAL        CLOUDY    30  25  80 SE17G24   30.27F WCI  18
HAYS           CLOUDY    25   9  50 SE15      30.39F WCI  12
GOODLAND       FOG       25  24  96 S21       30.19F VSB 1/4 WCI  11
$$




USA.gov is the U.S. government's official web portal to all federal, state and local government web resources and services.